SEYTG ESOW-ESSP

Flight info

Callsign SEYTG
Flight time N/A
Altitude 6000
Route LX DCT SA719 VFR DCT TRS IFR DCT ON
Aircraft B36T/L-BDFGLORY/S

Departure

Time 2026-04-27 14:55
Airport Stockholm Västerås Airport (ESOW)

Arrival

Time N/A
Airport Norrköping Airport (ESSP)
Time Latitude Longitude Altitude Speed Heading
2026-04-27 14:33 59.58878 16.62678 24 ft 0 kts 283°
2026-04-27 14:47 59.58878 16.62677 24 ft 1 kts 282°
2026-04-27 14:47 59.58872 16.62686 23 ft 1 kts 13°
2026-04-27 14:48 59.58898 16.62660 24 ft 3 kts 349°
2026-04-27 14:48 59.58940 16.62725 24 ft 12 kts 80°
2026-04-27 14:48 59.58936 16.62851 21 ft 7 kts 98°
2026-04-27 14:49 59.58925 16.62939 20 ft 5 kts 136°
2026-04-27 14:49 59.58866 16.62939 18 ft 10 kts 188°
2026-04-27 14:49 59.58795 16.62920 15 ft 10 kts 188°
2026-04-27 14:49 59.58736 16.62904 15 ft 8 kts 188°
2026-04-27 14:50 59.58677 16.62889 15 ft 10 kts 188°
2026-04-27 14:50 59.58601 16.62869 14 ft 12 kts 187°
2026-04-27 14:50 59.58521 16.62847 14 ft 11 kts 188°
2026-04-27 14:50 59.58462 16.62831 14 ft 9 kts 188°
2026-04-27 14:51 59.58408 16.62815 13 ft 7 kts 187°
2026-04-27 14:51 59.58373 16.62853 13 ft 8 kts 98°
2026-04-27 14:51 59.58368 16.62925 14 ft 4 kts 98°
2026-04-27 14:51 59.58368 16.62926 14 ft 0 kts 98°
2026-04-27 14:53 59.58362 16.63017 15 ft 11 kts 97°
2026-04-27 14:53 59.58361 16.63128 17 ft 4 kts 53°
2026-04-27 14:54 59.58371 16.63140 17 ft 0 kts 11°
2026-04-27 14:54 59.58623 16.63251 30 ft 77 kts
2026-04-27 14:54 59.59239 16.63519 275 ft 93 kts
2026-04-27 14:54 59.59890 16.63754 545 ft 103 kts
2026-04-27 14:55 59.60430 16.64694 583 ft 110 kts 68°
2026-04-27 14:55 59.60395 16.66175 665 ft 116 kts 118°
2026-04-27 14:55 59.59724 16.66810 887 ft 108 kts 174°
2026-04-27 14:55 59.58984 16.66932 1136 ft 106 kts 175°
2026-04-27 14:56 59.58263 16.67037 1355 ft 103 kts 177°
2026-04-27 14:56 59.57547 16.67130 1600 ft 102 kts 178°
2026-04-27 14:56 59.56798 16.67227 1939 ft 117 kts 177°
2026-04-27 14:56 59.55957 16.67333 2383 ft 123 kts 178°
2026-04-27 14:57 59.55089 16.67454 2754 ft 128 kts 177°
2026-04-27 14:57 59.54184 16.67583 3179 ft 133 kts 178°
2026-04-27 14:57 59.53257 16.67703 3617 ft 134 kts 178°
2026-04-27 14:57 59.52327 16.67842 3984 ft 139 kts 178°
2026-04-27 14:58 59.51293 16.67979 4006 ft 148 kts 178°
2026-04-27 14:58 59.50316 16.68121 3997 ft 136 kts 178°
2026-04-27 14:58 59.49388 16.68256 3986 ft 131 kts 178°
2026-04-27 14:58 59.48479 16.68391 3989 ft 133 kts 177°
2026-04-27 14:59 59.47533 16.68523 3994 ft 138 kts 178°
2026-04-27 14:59 59.46573 16.68657 3999 ft 139 kts 177°
2026-04-27 14:59 59.45609 16.68792 3999 ft 139 kts 177°
2026-04-27 14:59 59.44650 16.68937 4004 ft 138 kts 178°
2026-04-27 15:00 59.43742 16.69071 3957 ft 131 kts 178°
2026-04-27 15:00 59.42801 16.69179 3586 ft 138 kts 180°
2026-04-27 15:00 59.41841 16.69251 3256 ft 139 kts 181°
2026-04-27 15:00 59.40889 16.69298 2901 ft 139 kts 181°
2026-04-27 15:01 59.39912 16.69281 2487 ft 142 kts 184°
2026-04-27 15:01 59.38942 16.69157 2238 ft 133 kts 187°
2026-04-27 15:01 59.38068 16.69041 2281 ft 124 kts 187°
2026-04-27 15:01 59.37205 16.69282 2047 ft 130 kts 148°
2026-04-27 15:02 59.36415 16.70050 1977 ft 125 kts 175°
2026-04-27 15:02 59.35550 16.70152 1992 ft 127 kts 178°
2026-04-27 15:02 59.34651 16.70333 1994 ft 131 kts 178°
2026-04-27 15:02 59.33746 16.70458 1996 ft 130 kts 180°
2026-04-27 15:03 59.32840 16.70587 1995 ft 131 kts 178°
2026-04-27 15:03 59.31923 16.70699 1996 ft 133 kts 177°
2026-04-27 15:03 59.31304 16.70802 1983 ft 132 kts 176°
2026-04-27 15:03 59.30394 16.70928 1984 ft 131 kts 179°
2026-04-27 15:04 59.29523 16.71042 1985 ft 128 kts 176°
2026-04-27 15:04 59.28618 16.71175 1994 ft 130 kts 180°
2026-04-27 15:04 59.27734 16.71287 1993 ft 129 kts 179°
2026-04-27 15:04 59.26871 16.71775 1969 ft 131 kts 139°
2026-04-27 15:05 59.26423 16.73262 1968 ft 126 kts 92°
2026-04-27 15:05 59.26559 16.74822 1977 ft 114 kts 54°
2026-04-27 15:05 59.27080 16.75827 1977 ft 102 kts 20°
2026-04-27 15:05 59.27744 16.76069 1978 ft 93 kts 352°
2026-04-27 15:06 59.28329 16.75499 1813 ft 101 kts 319°
2026-04-27 15:06 59.28781 16.74520 1481 ft 89 kts 315°
2026-04-27 15:06 59.29164 16.73637 1231 ft 86 kts 316°
2026-04-27 15:06 59.29568 16.72748 1031 ft 86 kts 320°
2026-04-27 15:07 59.30026 16.72084 965 ft 79 kts 332°
2026-04-27 15:07 59.30534 16.71636 868 ft 79 kts 340°
2026-04-27 15:07 59.31073 16.71402 823 ft 81 kts 347°
2026-04-27 15:07 59.31646 16.71168 724 ft 86 kts 349°
2026-04-27 15:08 59.32236 16.71032 634 ft 86 kts 355°
2026-04-27 15:08 59.32848 16.70972 509 ft 90 kts 358°
2026-04-27 15:08 59.33472 16.70966 409 ft 89 kts 356°
2026-04-27 15:08 59.34091 16.70906 243 ft 87 kts 355°
2026-04-27 15:09 59.34685 16.70864 179 ft 84 kts 355°
2026-04-27 15:09 59.35215 16.70832 320 ft 73 kts 355°
2026-04-27 15:09 59.35730 16.70801 436 ft 74 kts 355°
2026-04-27 15:09 59.36196 16.70950 686 ft 66 kts 339°
2026-04-27 15:10 59.36677 16.70726 1029 ft 89 kts
2026-04-27 15:10 59.37304 16.71161 1370 ft 105 kts 34°
2026-04-27 15:10 59.37494 16.72599 1695 ft 126 kts 99°
2026-04-27 15:10 59.36888 16.73734 1996 ft 119 kts 171°
2026-04-27 15:11 59.36107 16.73857 2295 ft 110 kts 175°
2026-04-27 15:11 59.35352 16.73922 2601 ft 108 kts 190°
2026-04-27 15:11 59.34605 16.73754 2910 ft 111 kts 189°
2026-04-27 15:11 59.33812 16.73599 3244 ft 120 kts 190°
2026-04-27 15:12 59.32928 16.73394 3578 ft 145 kts 191°
2026-04-27 15:12 59.31832 16.73094 3942 ft 169 kts 191°
2026-04-27 15:12 59.30602 16.72731 3995 ft 173 kts 192°
2026-04-27 15:12 59.29512 16.72384 3986 ft 150 kts 192°
2026-04-27 15:13 59.28501 16.72081 3977 ft 144 kts 192°
2026-04-27 15:13 59.27507 16.71805 3976 ft 145 kts 192°
2026-04-27 15:13 59.26512 16.71539 3978 ft 144 kts 192°
2026-04-27 15:13 59.25539 16.71847 3977 ft 146 kts 144°
2026-04-27 15:14 59.25030 16.73441 3974 ft 137 kts 95°
2026-04-27 15:14 59.25093 16.75205 3979 ft 128 kts 66°
2026-04-27 15:14 59.25315 16.76903 3984 ft 130 kts 70°
2026-04-27 15:14 59.25500 16.78637 3989 ft 130 kts 70°
2026-04-27 15:15 59.25677 16.80366 4003 ft 129 kts 71°
2026-04-27 15:15 59.25841 16.82007 4171 ft 120 kts 71°
2026-04-27 15:15 59.25997 16.83613 4296 ft 121 kts 71°
2026-04-27 15:15 59.26157 16.85231 4430 ft 121 kts 72°
2026-04-27 15:16 59.26313 16.86848 4552 ft 121 kts 71°
2026-04-27 15:16 59.26472 16.88460 4702 ft 123 kts 71°
2026-04-27 15:16 59.26631 16.90106 4833 ft 123 kts 71°
2026-04-27 15:16 59.26791 16.91760 4971 ft 125 kts 71°
2026-04-27 15:17 59.26953 16.93423 5105 ft 124 kts 71°
2026-04-27 15:17 59.27114 16.95087 5235 ft 125 kts 72°
2026-04-27 15:17 59.27272 16.96742 5380 ft 123 kts 72°
2026-04-27 15:17 59.27433 16.98392 5506 ft 123 kts 71°
2026-04-27 15:18 59.27592 17.00034 5636 ft 122 kts 72°
2026-04-27 15:18 59.27748 17.01658 5769 ft 122 kts 71°
2026-04-27 15:18 59.27905 17.03286 5897 ft 122 kts 73°
2026-04-27 15:18 59.28062 17.04922 6031 ft 122 kts 72°
2026-04-27 15:19 59.28217 17.06550 6173 ft 121 kts 71°
2026-04-27 15:19 59.28373 17.08178 6249 ft 124 kts 71°
2026-04-27 15:19 59.28537 17.09872 6258 ft 128 kts 73°
2026-04-27 15:19 59.28703 17.11605 6260 ft 131 kts 72°
2026-04-27 15:20 59.28872 17.13378 6264 ft 134 kts 72°
2026-04-27 15:20 59.29041 17.15151 6266 ft 135 kts 73°
2026-04-27 15:20 59.29212 17.16972 6265 ft 134 kts 73°
2026-04-27 15:20 59.29382 17.18758 6261 ft 133 kts 73°
2026-04-27 15:21 59.29549 17.20525 6262 ft 135 kts 72°
2026-04-27 15:21 59.29720 17.22324 6239 ft 136 kts 73°
2026-04-27 15:21 59.29891 17.24138 6079 ft 135 kts 73°
2026-04-27 15:21 59.30066 17.25975 5828 ft 138 kts 73°
2026-04-27 15:22 59.30239 17.27812 5441 ft 134 kts 73°
2026-04-27 15:22 59.30418 17.29690 5058 ft 142 kts 72°
2026-04-27 15:22 59.30594 17.31573 4659 ft 140 kts 73°
2026-04-27 15:22 59.30769 17.33440 4267 ft 139 kts 73°
2026-04-27 15:23 59.30943 17.35299 3876 ft 139 kts 73°
2026-04-27 15:23 59.31116 17.37154 3483 ft 137 kts 73°
2026-04-27 15:23 59.31288 17.38994 3088 ft 138 kts 73°
2026-04-27 15:23 59.31460 17.40844 2698 ft 138 kts 73°
2026-04-27 15:24 59.31631 17.42687 2304 ft 137 kts 73°
2026-04-27 15:24 59.31800 17.44511 1909 ft 136 kts 72°
2026-04-27 15:24 59.31970 17.46341 1515 ft 137 kts 73°
2026-04-27 15:24 59.32137 17.48157 1254 ft 129 kts 73°
2026-04-27 15:25 59.32283 17.49792 1247 ft 117 kts 71°
2026-04-27 15:25 59.32424 17.51338 1245 ft 113 kts 72°
2026-04-27 15:25 59.32565 17.52837 1245 ft 112 kts 72°
2026-04-27 15:25 59.32701 17.54318 1241 ft 110 kts 71°
2026-04-27 15:26 59.32833 17.55780 1242 ft 107 kts 71°
2026-04-27 15:26 59.32966 17.57198 1245 ft 106 kts 70°
2026-04-27 15:26 59.33094 17.58615 1242 ft 105 kts 72°
2026-04-27 15:26 59.33226 17.60039 1240 ft 108 kts 71°
2026-04-27 15:27 59.33358 17.61480 1239 ft 107 kts 71°
2026-04-27 15:27 59.33488 17.62911 1241 ft 106 kts 71°
2026-04-27 15:27 59.33617 17.64329 1243 ft 106 kts 70°
2026-04-27 15:27 59.33746 17.65752 1243 ft 106 kts 71°
2026-04-27 15:28 59.33874 17.67166 1245 ft 105 kts 72°
2026-04-27 15:28 59.34003 17.68581 1129 ft 104 kts 71°
2026-04-27 15:28 59.34106 17.69881 941 ft 90 kts 74°
2026-04-27 15:28 59.34155 17.71187 678 ft 93 kts 76°
2026-04-27 15:29 59.34279 17.72472 428 ft 92 kts 63°
2026-04-27 15:29 59.34573 17.73386 304 ft 77 kts 29°
2026-04-27 15:29 59.35089 17.73483 419 ft 83 kts 331°
2026-04-27 15:29 59.35289 17.72370 416 ft 100 kts 262°
2026-04-27 15:30 59.34807 17.71589 348 ft 92 kts 204°
2026-04-27 15:30 59.34264 17.71077 407 ft 85 kts 240°
2026-04-27 15:30 59.34294 17.70109 489 ft 82 kts 342°
2026-04-27 15:30 59.34711 17.70751 613 ft 98 kts 88°
2026-04-27 15:31 59.34659 17.72000 272 ft 82 kts 81°
2026-04-27 15:31 59.34540 17.73029 64 ft 77 kts 97°
2026-04-27 15:31 59.34427 17.73980 12 ft 65 kts 101°
2026-04-27 15:31 59.34288 17.75072 219 ft 95 kts 98°
2026-04-27 15:32 59.34473 17.76084 566 ft 81 kts
2026-04-27 15:32 59.35023 17.75804 634 ft 89 kts 313°
2026-04-27 15:32 59.35143 17.74568 678 ft 94 kts 280°
2026-04-27 15:32 59.35134 17.73289 716 ft 96 kts 277°
2026-04-27 15:33 59.35007 17.72017 671 ft 91 kts 259°
2026-04-27 15:33 59.34455 17.71539 582 ft 101 kts 161°
2026-04-27 15:33 59.34205 17.72543 420 ft 85 kts 51°
2026-04-27 15:33 59.34479 17.73420 46 ft 77 kts 71°
2026-04-27 15:34 59.34373 17.74374 33 ft 77 kts 97°
2026-04-27 15:34 59.34265 17.75608 322 ft 98 kts 79°
2026-04-27 15:34 59.34623 17.76541 491 ft 99 kts
2026-04-27 15:34 59.35157 17.75886 496 ft 99 kts 293°
2026-04-27 15:35 59.35183 17.74564 659 ft 95 kts 280°
2026-04-27 15:35 59.35309 17.73308 671 ft 95 kts 293°
2026-04-27 15:35 59.35422 17.72029 716 ft 98 kts 282°
2026-04-27 15:35 59.35002 17.71250 559 ft 93 kts 179°
2026-04-27 15:36 59.34657 17.72073 219 ft 87 kts 95°
2026-04-27 15:36 59.34516 17.73281 41 ft 89 kts 96°
2026-04-27 15:36 59.34378 17.74356 47 ft 87 kts 104°
2026-04-27 15:36 59.34087 17.75559 549 ft 105 kts 150°
2026-04-27 15:37 59.33407 17.76168 769 ft 108 kts 140°
2026-04-27 15:37 59.32670 17.76598 919 ft 121 kts 187°
2026-04-27 15:37 59.31760 17.75857 908 ft 160 kts 215°
2026-04-27 15:37 59.30988 17.74739 750 ft 127 kts 225°
2026-04-27 15:38 59.30334 17.73594 752 ft 132 kts 233°
2026-04-27 15:38 59.29844 17.72105 711 ft 113 kts 260°
2026-04-27 15:38 59.29823 17.70779 783 ft 105 kts 290°
2026-04-27 15:38 59.30031 17.69222 1058 ft 125 kts 294°
2026-04-27 15:39 59.30344 17.67527 1220 ft 145 kts 299°
2026-04-27 15:39 59.30777 17.65623 1331 ft 160 kts 295°
2026-04-27 15:39 59.30915 17.63560 1290 ft 137 kts 261°
2026-04-27 15:39 59.30455 17.62192 1073 ft 115 kts 232°
2026-04-27 15:40 59.29779 17.61083 1058 ft 144 kts 220°
2026-04-27 15:40 59.28984 17.60085 949 ft 129 kts 218°
2026-04-27 15:40 59.28214 17.59051 886 ft 144 kts 219°
2026-04-27 15:40 59.27303 17.58197 901 ft 140 kts 194°
2026-04-27 15:41 59.26373 17.58199 794 ft 131 kts 178°
2026-04-27 15:41 59.25383 17.58541 830 ft 155 kts 159°
2026-04-27 15:41 59.24449 17.59331 757 ft 130 kts 156°
2026-04-27 15:41 59.23572 17.59961 700 ft 149 kts 163°
2026-04-27 15:42 59.22660 17.60486 628 ft 117 kts 163°
2026-04-27 15:42 59.21851 17.60993 867 ft 139 kts 162°
2026-04-27 15:42 59.20894 17.61560 1059 ft 153 kts 165°
2026-04-27 15:42 59.19765 17.62106 1172 ft 183 kts 164°
2026-04-27 15:43 59.18501 17.62836 1038 ft 176 kts 171°
2026-04-27 15:43 59.17470 17.62782 1041 ft 146 kts 189°
2026-04-27 15:43 59.16391 17.62614 1110 ft 159 kts 186°
2026-04-27 15:43 59.15304 17.62492 1330 ft 157 kts 186°
2026-04-27 15:44 59.14222 17.62290 1507 ft 157 kts 188°
2026-04-27 15:44 59.13112 17.62000 1738 ft 175 kts 190°
2026-04-27 15:44 59.11847 17.61615 1880 ft 188 kts 191°
2026-04-27 15:44 59.10540 17.61200 1924 ft 187 kts 193°
2026-04-27 15:45 59.09283 17.60595 1935 ft 188 kts 197°
2026-04-27 15:45 59.08021 17.59976 1830 ft 191 kts 195°
2026-04-27 15:45 59.06839 17.59513 1582 ft 162 kts 194°
2026-04-27 15:45 59.05676 17.59082 1628 ft 178 kts 193°
2026-04-27 15:46 59.04442 17.58767 1800 ft 181 kts 183°
2026-04-27 15:46 59.03343 17.58634 1807 ft 127 kts 187°
2026-04-27 15:46 59.02573 17.58360 1519 ft 104 kts 210°
2026-04-27 15:46 59.01957 17.57645 1031 ft 104 kts 212°
2026-04-27 15:47 59.01289 17.57206 674 ft 99 kts 194°
2026-04-27 15:47 59.00644 17.57017 370 ft 87 kts 192°
2026-04-27 15:47 59.00037 17.56801 240 ft 112 kts 200°
2026-04-27 15:47 58.99025 17.56276 566 ft 167 kts 202°
2026-04-27 15:48 58.97933 17.55521 1237 ft 169 kts 204°
2026-04-27 15:48 58.96856 17.54664 2039 ft 166 kts 206°
2026-04-27 15:48 58.95858 17.53771 2695 ft 151 kts 210°
2026-04-27 15:49 58.93518 17.52607 2404 ft 192 kts 180°
2026-04-27 15:49 58.92377 17.52337 1872 ft 153 kts 200°
2026-04-27 15:49 58.91294 17.51712 1721 ft 164 kts 200°
2026-04-27 15:49 58.90217 17.51075 1790 ft 160 kts 200°
2026-04-27 15:50 58.89168 17.50431 1895 ft 158 kts 202°
2026-04-27 15:50 58.88105 17.49739 1877 ft 159 kts 189°
2026-04-27 15:50 58.87388 17.50815 2337 ft 132 kts 89°
2026-04-27 15:50 58.87768 17.52290 2572 ft 125 kts 32°
2026-04-27 15:51 58.88522 17.53231 2761 ft 129 kts 29°
2026-04-27 15:51 58.89236 17.54215 3091 ft 123 kts 33°
2026-04-27 15:51 58.89680 17.54902 3317 ft 125 kts 34°
2026-04-27 15:51 58.90389 17.56067 3255 ft 141 kts 36°
2026-04-27 15:52 58.91357 17.57605 3480 ft 132 kts 20°
2026-04-27 15:52 58.92231 17.57582 3671 ft 128 kts 340°
2026-04-27 15:52 58.92888 17.56452 3868 ft 132 kts 302°
2026-04-27 15:52 58.93157 17.54726 4078 ft 135 kts 290°
2026-04-27 15:53 58.93327 17.53547 4216 ft 135 kts 291°
2026-04-27 15:53 58.93585 17.51757 4248 ft 142 kts 291°
2026-04-27 15:53 58.93655 17.49839 4307 ft 145 kts 263°
2026-04-27 15:53 58.93261 17.48038 4521 ft 146 kts 250°
2026-04-27 15:54 58.92820 17.46265 4662 ft 147 kts 250°
2026-04-27 15:54 58.92352 17.44370 4201 ft 168 kts 248°
2026-04-27 15:54 58.91847 17.42372 4020 ft 158 kts 251°
2026-04-27 15:54 58.91152 17.40748 4022 ft 161 kts 221°
2026-04-27 15:55 58.90238 17.39492 4021 ft 161 kts 216°
2026-04-27 15:55 58.89138 17.39035 4016 ft 166 kts 180°
2026-04-27 15:55 58.87982 17.39096 4020 ft 166 kts 180°
2026-04-27 15:55 58.86825 17.39149 4023 ft 167 kts 180°
2026-04-27 15:56 58.85664 17.39201 4024 ft 167 kts 180°
2026-04-27 15:56 58.84518 17.39244 4026 ft 167 kts 180°
2026-04-27 15:56 58.83337 17.39286 3843 ft 173 kts 180°
2026-04-27 15:56 58.82112 17.39329 3607 ft 174 kts 180°
2026-04-27 15:57 58.80945 17.38946 3355 ft 170 kts 212°
2026-04-27 15:57 58.80026 17.37589 3131 ft 169 kts 224°
2026-04-27 15:57 58.79120 17.36148 2896 ft 169 kts 224°
2026-04-27 15:57 58.78218 17.34708 2664 ft 168 kts 224°
2026-04-27 15:58 58.77475 17.33053 2418 ft 160 kts 254°
2026-04-27 15:58 58.77496 17.31059 2171 ft 148 kts 297°
2026-04-27 15:58 58.77955 17.29336 2125 ft 140 kts 302°
2026-04-27 15:58 58.78403 17.27681 2118 ft 139 kts 302°